This demonstration page uses our WeatherBlox Daily Observations layout. Learn more.

Left ArrowRight Arrow

39.08367, -84.50855

Hourly Observations for July 31, 2020

Temp ( °F °C ) Dew Point ( °F °C ) Humidity (%) Winds ( mph kmh ) Pressure ( in mb ) Visibility ( mi km ) Precip ( " mm )
12:00 am 00:00 Cloudy 71 21.7 68 20 90 90 N 6 9 29.81 1009 9 14 N/A
12:53 am 00:53 Cloudy 71 21.7 68 20 90 90 NNE 7 11 29.80 1009 9 14 N/A
1:21 am 01:21 Cloudy 71 21.7 68 20 90 90 NE 7 11 29.81 1009 10 16 N/A
1:32 am 01:32 Cloudy 70 21.1 68 20 93 93 NE 9 15 29.80 1009 10 16 N/A
1:53 am 01:53 Cloudy 70 21.1 68 20 93 93 NE 6 9 29.80 1009 9 14 N/A
2:26 am 02:26 Cloudy with Light Rain 70 21.1 68 20 93 93 N 5 7 29.80 1009 3 5 0.01 0.25
2:53 am 02:53 Cloudy 70 21.1 68 20 93 93 N 7 11 29.79 1009 7 11 0.01 0.25
3:38 am 03:38 Cloudy 70 21.1 68 20 93 93 N 6 9 29.80 1009 10 16 N/A
3:53 am 03:53 Cloudy 70 21.1 68 20 93 93 NNE 5 7 29.80 1009 10 16 N/A
4:53 am 04:53 Cloudy 70 21.1 67 19.4 90 90 N 5 7 29.80 1009 10 16 N/A
5:53 am 05:53 Cloudy 70 21.1 68 20 93 93 NE 3 6 29.81 1009 9 14 N/A
6:29 am 06:29 Mostly Cloudy 70 21.1 67 19.4 90 90 N N/A 29.82 1010 9 14 N/A
6:53 am 06:53 Cloudy 70 21.1 68 20 93 93 N N/A 29.83 1010 8 13 N/A
7:53 am 07:53 Cloudy 71 21.7 68 20 90 90 NNE 5 7 29.84 1011 10 16 N/A
8:53 am 08:53 Cloudy 72 22.2 68 20 87 87 NNE 5 7 29.86 1011 10 16 N/A
9:12 am 09:12 Cloudy 72 22.2 68 20 87 87 NE 5 7 29.86 1011 10 16 N/A
9:53 am 09:53 Mostly Cloudy 74 23.3 69 20.6 85 85 NE 7 11 29.87 1011 10 16 N/A
10:53 am 10:53 Cloudy 76 24.4 68 20 77 77 ENE 5 7 29.88 1012 10 16 N/A
11:53 am 11:53 Mostly Cloudy 79 26.1 68 20 69 69 VRB 6 9 29.88 1012 10 16 N/A
12:53 pm 12:53 Mostly Cloudy 80 26.7 68 20 67 67 NNE 7 11 29.88 1012 10 16 N/A
1:53 pm 13:53 Cloudy 82 27.8 67 19.4 60 60 VRB 3 6 29.88 1012 10 16 N/A
2:53 pm 14:53 Partly Cloudy 81 27.2 67 19.4 62 62 ENE 6 9 29.86 1011 10 16 N/A
3:53 pm 15:53 Mostly Cloudy 82 27.8 68 20 63 63 N 6 9 29.85 1011 10 16 N/A
4:53 pm 16:53 Cloudy 82 27.8 69 20.6 65 65 ENE 5 7 29.84 1011 10 16 N/A
5:53 pm 17:53 Cloudy 80 26.7 68 20 67 67 NE 6 9 29.84 1011 10 16 N/A
6:53 pm 18:53 Cloudy 79 26.1 69 20.6 72 72 NE 6 9 29.84 1011 10 16 N/A
7:53 pm 19:53 Cloudy 77 25 72 22.2 85 85 N N/A 29.85 1011 10 16 N/A
8:53 pm 20:53 Cloudy 76 24.4 71 21.7 85 85 N N/A 29.85 1011 10 16 N/A
9:53 pm 21:53 Cloudy 75 23.9 70 21.1 84 84 N N/A 29.87 1012 10 16 N/A
10:53 pm 22:53 Cloudy 74 23.3 71 21.7 91 91 N N/A 29.87 1012 10 16 N/A
11:53 pm 23:53 Cloudy 75 23.9 70 21.1 84 84 NE 3 6 29.86 1011 10 16 N/A

Powered by AerisWeather